Tracking 31027 objects as of 19-Jul-2025
HD Live streaming from Space Station
objects crossing your sky now

THOR ABLESTAR R/B

Track THOR ABLESTAR R/B now!
10-day predictions


NORAD ID: 204
Int'l Code: 1961-031C
Perigee: 951.4 km
Apogee: 1,097.7 km
Inclination: 32.4 °
Period: 105.5 minutes
Semi major axis: 7395 km
RCS: 3.5845 m2 (large)
Launch date: November 15, 1961
Source: United States (US)
Launch site: AIR FORCE EASTERN TEST RANGE (AFETR)

Note: This is a ROCKET BODY
Your satellite tracking list
STARLINK-1749
Track 1 satellite(s)




NASA's NSSDC Master Catalog

Two Line Element Set (TLE):
1 00204U 61031C   25199.56914372  .00000062  00000-0  45397-4 0  9990
2 00204  32.4432 292.3514 0098903 292.5589  66.4592 13.65050680177417
Source of the keplerian elements: AFSPC